Regional Weather Roundup
Issued by NWS

Home | Current Version | Previous Version | Text Only | Print | Product List | Glossary On
Versions: 1 2 3 4 5 6 7 8 9 10 11 12 13 14 15 16 17 18 19 20 21 22 23 24 25 26 27 28 29 30 31 32 33 34 35 36 37 38 39 40 41 42 43 44 45 46 47 48 49 50
000
ASUS43 KDTX 280801
RWRMI
MICHIGAN HOURLY REGIONAL WEATHER ROUNDUP
NATIONAL WEATHER SERVICE DETROIT/PONTIAC MI
400 AM EDT WED SEP 28 2016

NOTE: "FAIR" INDICATES FEW OR NO CLOUDS BELOW 12,000 FEET WITH NO
SIGNIFICANT WEATHER AND/OR OBSTRUCTION TO VISIBILITY.

MIZ047>049-052>055-059>063-066>070-074>076-081>083-280900-
SOUTHEAST LOWER MICHIGAN

CITY           SKY/WX    TMP DP  RH WIND       PRES   REMARKS
ADRIAN         CLOUDY    50  46  86 E5        29.82F
ALMA           CLOUDY    52  51  97 SW6       29.83R
ANN ARBOR      CLOUDY    51  47  86 N5        29.82S
BAD AXE        CLOUDY    51  47  86 CALM      29.85S
CARO           CLOUDY    51  49  90 CALM      29.83F
DETROIT CITY   CLOUDY    57  48  72 NE5       29.83S
DETROIT        CLOUDY    56  46  69 NE6       29.82F
FLINT          MOCLDY    50  47  89 CALM      29.83S
GROSSE ILE     MOCLDY    57  49  75 E6        29.81S
HILLSDALE      PTCLDY    48  45  87 E5        29.80F
HOWELL         CLOUDY    51  47  86 CALM      29.83R

CITY           SKY/WX    TMP DP  RH WIND       PRES   REMARKS
JACKSON        PTCLDY    51  47  86 E5        29.81S
LAMBERTVILLE   PTCLDY    49  47  90 CALM      29.81F
LANSING        PTCLDY    51  45  79 SE3       29.83R
LAPEER         MOCLDY    50  48  93 S5        29.84S
MASON          CLOUDY    49  47  91 CALM      29.82S
MONROE         CLOUDY    49  45  85 CALM      29.81S
MT. CLEMENS    CLOUDY    53  47  78 NE5       29.82S
PONTIAC        CLOUDY    52  46  80 NE3       29.83S
PORT HURON     CLOUDY    48  48 100 CALM      29.85S
TRI CITIES     CLOUDY    53  50  89 S6        29.84R
MIDLAND        MOCLDY    51  49  95 CALM      29.82S
TROY           CLOUDY    57  45  64 NE5       29.85S
SAGINAW HB     MOCLDY    50  48  93 S3        29.83R
$$
MIZ043>046-050>051-056>058-064>065-071>073-077>080-280900-
SOUTHWEST LOWER MICHIGAN

CITY           SKY/WX    TMP DP  RH WIND       PRES   REMARKS
BATTLE CREEK   CLOUDY    54  48  80 E5        29.80F
BENTON HARBOR  CLOUDY    54  49  83 CALM      29.79R
BIG RAPIDS     CLOUDY    51  51  99 SE3       29.80R
COLDWATER      CLOUDY    51  46  83 E5        29.79F
FREMONT        FAIR      50  50 100 SE3       29.78S
HOLLAND        CLOUDY    53  49  86 E3        29.79F
GRAND RAPIDS   CLOUDY    51  48  89 CALM      29.81R
IONIA          FAIR      49  47  93 E6        29.80F
KALAMAZOO      PTCLDY    52  47  83 E5        29.79F
LUDINGTON      RAIN      50  50 100 SE3       29.77S
MARSHALL       PTCLDY    51  48  87 CALM      29.80F
MOUNT PLEASANT CLOUDY    52  50  93 CALM      29.81R
MUSKEGON       CLOUDY    55  47  74 W3        29.79S
SOUTH HAVEN    LGT RAIN  54  52  94 E3        29.80R
$$
MIZ016>042-280900-
NORTHERN LOWER MICHIGAN

CITY           SKY/WX    TMP DP  RH WIND       PRES   REMARKS
ALPENA         CLOUDY    51  48  89 CALM      29.84R
BEAVER ISLAND  MOCLDY    51  51 100 SE6       29.80R
BELLAIRE       MOCLDY    49  48  93 CALM      29.81R
CADILLAC       DRIZZLE   48  47  95 E3        29.78S
CHARLEVOIX     CLOUDY    49  49  99 SE5       29.83R
FRANKFORT      DRIZZLE   51  49  93 SE3       29.77S
GAYLORD        CLOUDY    48  46  93 SE6       29.82R FOG
GRAYLING       RAIN      49  48  98 E3        29.82R
HARBOR SPRINGS PTCLDY    47  46  99 NE6       29.82R
HOUGHTON LAKE  CLOUDY    50  48  93 SE6       29.82R
MANISTEE       LGT RAIN  50  50 100 SE6       29.77S
OSCODA         CLOUDY    51  49  93 SE5       29.83R
PELLSTON       MOCLDY    47  46  97 CALM      29.83R
ROGERS CITY    CLOUDY    51  48  92 CALM      29.85R
TRAVERSE CITY  CLOUDY    51  49  92 CALM      29.78R
$$
MIZ007>008-015-280900-
EASTERN UPPER MICHIGAN

CITY           SKY/WX    TMP DP  RH WIND       PRES   REMARKS
KINROSS        MOCLDY    51  50  96 E5        29.85R
MACKINAC ISLAN MOCLDY    51  51 100 SE6       29.83R
NEWBERRY       FOG       48  47  97 E5        29.83R VSB 1/2
S. S. MARIE    MOCLDY    53  52  96 E3        29.84R
MUNISING         N/A     52  50  93 E5        29.80R
$$
MIZ004>006-011>014-085-280900-
CENTRAL UPPER MICHIGAN

CITY           SKY/WX    TMP DP  RH WIND       PRES   REMARKS
MANISTIQUE     CLOUDY    51  49  92 NE6       29.79R
ESCANABA       CLOUDY    43  43 100 N3        29.78R
MENOMINEE      MOCLDY    49  48  97 NW3       29.78R
SAWYER-GWINN   CLOUDY    51  50  98 E7        29.80R
$$
MIZ001>003-009>011-084-280900-
WESTERN UPPER MICHIGAN

CITY           SKY/WX    TMP DP  RH WIND       PRES   REMARKS
IRON MOUNTAIN  PTCLDY    46  44  93 CALM      29.77R
HOUGHTON       CLOUDY    53  50  89 NE10      29.84R
COPPER HARBOR    N/A     57  54  89 VRB7      29.85R
IRONWOOD       RAIN      53  52  96 N10       29.85R FOG
$$

ABBREVIATIONS USED IN REMARKS
   TC - TEMPERATURE IN CELSIUS
  WCI - WIND CHILL INDEX
   HX - HEAT INDEX
  VSB - VISIBILITY





USA.gov is the U.S. government's official web portal to all federal, state and local government web resources and services.